Location: Izdebno
(52.6670°N, 16.2170°E)
Time: 16:04:27
(UTC+01:00)

Vanguard 2 - Pass Details

Date: 31 January 2023
Orbit: 553 x 2927 km, 32.9° (Epoch: 24 March)

Event Time Altitude Azimuth Distance (km) Brightness Sun altitude
Rises 05:26:46 0° 269° (W) 6,722 - -20.1°
Reaches altitude 10° 05:36:05 10° 244° (WSW) 5,365 - -18.7°
Exits shadow 05:37:23 11° 240° (WSW) 5,224 11.3 -18.5°
Maximum altitude 05:40:19 12° 228° (SW) 4,983 11.3 -18.0°
Drops below altitude 10° 05:44:14 10° 212° (SSW) 4,848 11.3 -17.4°
Sets 05:51:21 0° 183° (S) 5,244 11.8 -16.4°
